Flag for Canada Weather past 2 weeks in North Bay, Ontario, Canada

Now
-9 °F

Clear.


Feels Like: -30 °F
Forecast: -20 / -1 °F
Wind: 13 mph from North

Location: North Bay

Current Time: Feb 1, 2015 at 3:52:10 AM

Latest Report: Feb 1, 2015 at 3:00 AM


Visibility: 9 mi

Pressure: 30.34 "Hg

Humidity: 77%

Dew point: -15 °F

Location of North BayLocation

Historic Weather in North Bay — Graph

°F

North Bay temperature yesterday

Maximum temperature yesterday: 14 °F (at 7:00 PM)
Minimum temperature yesterday: -17 °F (at 12:00 AM)
Average temperature yesterday: 0 °F

Past Weeks' High & Low Weather Summary

 TemperatureHumidityPressure
High34 °F (Jan 18, 1:00 PM)100% (Jan 18, 3:04 AM)30.40 "Hg (Jan 18, 3:04 AM)
Low-20 °F (Jan 28, 8:00 AM)52% (Jan 27, 3:00 PM)29.35 "Hg (Jan 24, 3:03 PM)
Average8 °F84%30.01 "Hg
* Reported Jan 17 2:00 AM — Feb 1 2:00 AM, North Bay, Weather by CustomWeather, © 2014

Note: Actual official high and low records may vary slightly from our data, if they occured in-between our weather recording intervals... More about our weather records

Advertising

North Bay weather history for previous 24 hours

 ConditionsComfort  
Time TempWeatherWind HumidityBarometerVisibility
2:00 AM
Feb 1
-8 °FClear.13 mph77%30.32 "Hg9 mi
1:00 AM-6 °FClear.8 mph77%30.30 "Hg9 mi
12:00 AM-2 °FClear.13 mph77%30.27 "Hg9 mi
11:00 PM
Jan 31
0 °FLight snow. Clear.18 mph78%30.23 "Hg9 mi
10:00 PM3 °FLight snow. Passing clouds.14 mph85%30.21 "Hg8 mi
9:00 PM12 °FLight snow. Overcast.16 mph85%30.16 "Hg10 mi
8:00 PM14 °FLight snow. Mostly cloudy.9 mph100%30.15 "Hg1 mi
7:00 PM14 °FLight snow. Overcast.3 mph92%30.13 "Hg3 mi
6:00 PM12 °FLight snow. Overcast.2 mph100%30.13 "Hg3 mi
5:00 PM12 °FLight snow. Overcast.7 mph100%30.11 "Hg1 mi
4:00 PM12 °FLight snow. Overcast.9 mph92%30.11 "Hg2 mi
3:00 PM12 °FLight snow. Overcast.6 mph85%30.13 "Hg2 mi
2:00 PM10 °FLight snow. Overcast.7 mph85%30.16 "Hg2 mi
1:00 PM9 °FLight snow. Overcast.5 mph85%30.19 "Hg5 mi
12:00 PM7 °FLight snow. Overcast.8 mph78%30.22 "Hg5 mi
11:48 AM5 °FLight snow. Overcast.7 mph78%30.24 "Hg10 mi
11:00 AM1 °FOvercast.3 mph78%30.26 "Hg15 mi
10:00 AM-2 °FOvercast.6 mph77%30.27 "Hg15 mi
9:00 AM-8 °FPartly sunny.5 mph84%30.28 "Hg15 mi
8:00 AM-11 °FPassing clouds.5 mph84%30.29 "Hg15 mi
7:00 AM-8 °FClear.5 mph77%30.27 "Hg15 mi
6:00 AM-11 °FClear.5 mph76%30.28 "Hg9 mi
5:00 AM-9 °FClear.3 mph77%30.30 "Hg9 mi
4:00 AM-9 °FClear.2 mph77%30.32 "Hg9 mi
3:00 AM-11 °FClear.2 mph84%30.34 "Hg9 mi
Weather by CustomWeather, © 2014

See weather overviewHow to use our weather pages